Location: La Pernelle
(49.6188°N, 1.2999°W)
Time: 04:17:09
(UTC+00:00)

NOSS 3-2 (A) - Pass Details

Date: 20 October 2021
Orbit: 771 x 1437 km, 63.4° (Epoch: 21 November)

Event Time Altitude Azimuth Distance (km) Brightness Sun altitude
Rises 22:56:02 0° 316° (NW) 3,964 7.3 -49.5°
Reaches altitude 10° 22:58:39 10° 311° (NW) 3,093 6.5 -49.6°
Enters shadow 23:00:00 17° 307° (NW) 2,672 6.1 -49.7°
